Location: ?????????
(55.6553°N, 38.9075°E)
Time: 12:25:00
(UTC+00:00)

USA 229 DEB - Pass Details

Date: 18 October 2019
Orbit: 997 x 1216 km, 63.4° (Epoch: 31 October)

Event Time Altitude Azimuth Distance (km) Brightness Sun altitude
Exits shadow 02:54:21 - 298° (WNW) 3,050 5.5 -10.0°
Reaches altitude 10° 02:54:43 10° 299° (WNW) 2,927 5.5 -9.9°
Maximum altitude 03:01:29 50° 15° (NNE) 1,406 4.4 -9.0°
Drops below altitude 10° 03:08:36 10° 90° (E) 3,078 7.8 -8.0°
Sets 03:11:30 0° 95° (E) 4,066 9.4 -7.6°
